[[{"header":{"parameterUnit":"m.s-1","parameterCategory":1,"la1":30.2991,"la2":30.254,"lo1":-89.0895,"lo2":-89.0444,"dy":0.0017,"dx":0.0017,"nx":28,"ny":28,"refTime":"2025-02-25T09:00:00:Z","depth":0,"parameterNumber":2,"parameterNumberName":"U-component_of_WINDS"},"data":[0,0,0,0,0,0,0,0,0,0,0,0,0,0,0,0,0,0,0,0,0,0,0,0,0,0,0,0,0,0,0,0,0,0,0,0,0,0,0,0,0,0,0,0,0,0,0,0,0,0,0,0,0,0,0,0,0,0,2.0902,2.0903,0,2.0971,2.0972,2.0972,2.0948,2.0947,2.0945,2.0944,2.1018,2.1022,2.1025,0,0,0,0,0,0,0,0,0,0,0,0,0,2.0754,2.0757,2.0902,2.0903,2.0904,2.0971,2.0972,2.0973,2.0949,2.0947,2.0945,2.0943,2.1017,2.1021,2.1025,0,0,0,0,0,0,0,0,0,0,0,0,0,2.082,2.0758,2.0902,2.09,2.09,2.0971,2.0972,2.0973,2.0949,2.0947,2.0944,2.0942,2.1016,2.1021,2.1026,2.1104,0,0,2.1042,2.1044,0,0,0,0,0,0,0,0,2.0817,2.0826,2.0899,2.09,2.0901,2.0949,2.0947,2.1017,2.095,2.0931,2.0944,2.0941,2.0997,2.1004,2.1022,2.1107,2.111,2.1042,2.1045,2.1047,2.1049,0,0,0,0,0,0,0,2.0812,2.0823,2.0929,2.09,2.0901,2.0897,2.0904,2.096,2.0976,2.0932,2.0931,2.0939,2.0997,2.1017,2.1023,2.1111,2.1042,2.1046,2.105,2.1052,2.1265,2.1268,0,0,0,0,0,0,2.0807,2.0819,2.0927,2.0931,2.0852,2.0901,2.0909,2.0936,2.0975,2.0979,2.0941,2.0937,2.1009,2.1018,2.1026,2.112,2.1047,2.1052,2.1055,2.1263,2.1266,2.1269,0,0,0,0,0,0,2.0804,2.0816,2.0924,2.0875,2.0888,2.0906,2.0936,2.0938,2.0958,2.0982,2.0985,2.0958,2.1008,2.1019,2.1084,2.1123,2.1054,2.1059,2.126,2.1264,2.1267,2.1309,0,0,0,0,0,0,2.0799,2.0815,2.0844,2.0876,2.0891,2.0981,2.0939,2.0941,2.0966,2.0963,2.0999,2.1002,2.1007,2.1077,2.109,2.1128,2.1063,2.1256,2.1261,2.1266,2.1304,2.1314,2.1322,0,0,0,0,0,2.0794,2.0854,2.0846,2.0859,2.0927,2.0983,2.0992,2.0994,2.0969,2.0999,2.1015,2.1001,2.1116,2.1084,2.1098,2.1139,2.1254,2.126,2.1266,2.13,2.1312,2.1322,0,0,0,0,0,0,2.0827,2.0858,2.0849,2.092,2.0949,2.0978,2.1016,2.1007,2.1044,2.1039,2.1042,2.1051,2.1118,2.1135,2.1099,2.1217,2.1182,2.119,2.1203,2.1214,2.1223,2.1218,2.1067,0,0,0,0,0,2.0843,2.0884,2.0909,2.097,2.0984,2.0998,2.1022,2.1022,2.1052,2.1065,2.1085,2.1116,2.1159,2.1188,2.1229,2.1307,2.1315,2.1342,2.1351,2.1358,2.1366,2.1409,2.1422,2.1288,2.1288,2.1288,0,0,2.0876,2.0897,2.0923,2.0977,2.0999,2.1043,2.1008,2.1056,2.109,2.1072,2.1135,2.1152,2.1187,2.1259,2.1292,2.1275,2.1404,2.1365,2.1371,2.1375,2.1416,2.1429,2.144,2.1292,2.1291,2.129,0,0,2.0958,2.0978,2.1031,2.1054,2.1087,2.1096,2.1109,2.114,2.115,2.1213,2.1201,2.1241,2.1315,2.1341,2.1364,2.1457,2.1446,2.147,2.1516,2.1559,2.1569,2.1579,2.1613,2.1625,2.1478,2.1478,2.1478,0,2.0995,2.1059,2.106,2.1109,2.1134,2.1119,2.1173,2.1196,2.1242,2.126,2.124,2.1333,2.1355,2.1434,2.1457,2.1475,2.1491,2.1466,2.1567,2.1577,2.1586,2.1618,2.1631,2.148,2.148,2.148,2.148,0,2.1103,2.1149,2.1188,2.1231,2.126,2.1312,2.1322,2.1351,2.1349,2.136,2.1425,2.1452,2.1498,2.1517,2.1515,2.1596,2.1584,2.1566,2.1531,2.1601,2.1632,2.1644,2.1484,2.1483,2.1483,2.1482,0,0,2.1209,2.1251,2.1266,2.1286,2.1322,2.1358,2.141,2.1454,2.148,2.1512,2.1557,2.162,2.1603,2.1629,2.1631,2.1668,2.1741,2.1645,2.1646,2.1663,2.1832,2.1846,2.1861,2.1734,2.1736,2.1738,2.183,0,2.1294,2.1384,2.1386,2.1468,2.1511,2.1498,2.1543,2.1572,2.1584,2.1623,2.1637,2.1682,2.1656,2.1671,2.1708,2.1724,2.1775,2.1718,2.1777,2.1779,2.1769,2.1876,2.1891,2.1976,2.1842,2.1844,2.1845,0,2.1406,2.1441,2.1528,2.1558,2.1576,2.1617,2.1658,2.1695,2.1727,2.1734,2.1763,2.1759,2.1813,2.1776,2.1852,2.1813,2.1837,2.1849,2.1852,2.1859,2.1816,2.1886,2.2004,2.2017,2.1864,2.1862,2.1861,0,2.1475,2.1544,2.1605,2.1622,2.1659,2.1688,2.1705,2.1735,2.1762,2.1798,2.1816,2.1859,2.1883,2.1917,2.1925,2.1897,2.2002,2.1965,2.201,2.2009,2.2033,2.2031,2.2156,2.2047,2.2047,2.2047,2.2047,0,2.1571,2.1625,2.1636,2.1674,2.1734,2.1737,2.1797,2.1812,2.1839,2.188,2.1872,2.1911,2.1919,2.1961,2.1968,2.203,2.2041,2.2049,2.205,2.205,2.2049,2.2066,2.2061,2.205,2.2049,2.2049,2.2048,0,2.1658,2.1668,2.1734,2.1763,2.1772,2.1815,2.1842,2.1878,2.1889,2.1942,2.1955,2.1973,2.2021,2.2032,2.209,2.2095,2.2169,2.2165,2.2158,2.2158,2.2203,2.2199,2.2344,2.2363,2.2241,2.2242,2.2243,0,2.1719,2.176,2.1794,2.1821,2.1839,2.1882,2.1909,2.1914,2.1942,2.1982,2.2015,2.2062,2.21,2.2178,2.2197,2.2242,2.2239,2.2287,2.2246,2.2244,2.2241,2.2238,2.2243,2.2295,2.2296,2.2297,2.2298,0,2.1827,2.1829,2.1868,2.1909,2.1941,2.1974,2.2005,2.2028,2.2037,2.207,2.2119,2.2148,2.2207,2.2254,2.2299,2.2318,2.2311,2.2311,2.2323,2.2324,2.2319,2.2323,2.218,2.2307,2.2306,2.2306,2.2305,2.2305,2.1903,2.1939,2.1969,2.2012,2.2036,2.2066,2.2102,2.2117,2.2157,2.2205,2.2206,2.2259,2.2291,2.235,2.2372,2.2415,2.2401,2.2419,2.2424,2.2429,2.2433,2.2311,2.2423,2.2423,2.2423,2.2423,2.2423,0,2.2011,2.2029,2.2069,2.2113,2.2147,2.2135,2.2169,2.22,2.2247,2.2277,2.2314,2.2371,2.2417,2.244,2.2486,2.2516,2.2513,2.2528,2.2526,2.2531,2.2443,2.2428,2.2529,2.2529,2.2529,2.2529,2.2529,2.2529,2.2071,2.2131,2.2138,2.2211,2.2229,2.228,2.2301,2.2329,2.2353,2.2416,2.2454,2.2468,2.2496,2.2544,2.2586,2.2592,2.2609,2.2626,2.263,2.2548,2.2537,2.2527,2.2512,2.263,2.263,2.2714,2.2715,2.2715]},{"header":{"parameterUnit":"m.s-1","parameterCategory":1,"la1":30.2991,"la2":30.254,"lo1":-89.0895,"lo2":-89.0444,"dy":0.0017,"dx":0.0017,"nx":28,"ny":28,"refTime":"2025-02-25T09:00:00:Z","depth":0,"parameterNumber":3,"parameterNumberName":"V-component_of_WINDS"},"data":[0,0,0,0,0,0,0,0,0,0,0,0,0,0,0,0,0,0,0,0,0,0,0,0,0,0,0,0,0,0,0,0,0,0,0,0,0,0,0,0,0,0,0,0,0,0,0,0,0,0,0,0,0,0,0,0,0,0,-0.1523,-0.1523,0,-0.1576,-0.1577,-0.1577,-0.1612,-0.1612,-0.1612,-0.1612,-0.1667,-0.1668,-0.1669,0,0,0,0,0,0,0,0,0,0,0,0,0,-0.1453,-0.1454,-0.1523,-0.1524,-0.1524,-0.1576,-0.1577,-0.1578,-0.1612,-0.1612,-0.1612,-0.1612,-0.1666,-0.1668,-0.1669,0,0,0,0,0,0,0,0,0,0,0,0,0,-0.1492,-0.1454,-0.1523,-0.1547,-0.155,-0.1576,-0.1577,-0.1578,-0.1612,-0.1612,-0.1612,-0.1613,-0.1666,-0.1668,-0.167,-0.1675,0,0,-0.1675,-0.1676,0,0,0,0,0,0,0,0,-0.149,-0.1495,-0.1543,-0.1546,-0.1549,-0.1588,-0.1572,-0.161,-0.1612,-0.1588,-0.1612,-0.1613,-0.164,-0.1644,-0.1653,-0.1677,-0.168,-0.1675,-0.1677,-0.1677,-0.1678,0,0,0,0,0,0,0,-0.1487,-0.1493,-0.1544,-0.1544,-0.1547,-0.1557,-0.1563,-0.158,-0.1612,-0.159,-0.1593,-0.1599,-0.1642,-0.1652,-0.1655,-0.168,-0.1675,-0.1677,-0.1678,-0.1679,-0.1715,-0.1715,0,0,0,0,0,0,-0.1481,-0.149,-0.1542,-0.1546,-0.152,-0.1558,-0.1564,-0.1575,-0.1612,-0.1618,-0.1598,-0.16,-0.1648,-0.1653,-0.1657,-0.1668,-0.1677,-0.1679,-0.168,-0.1715,-0.1715,-0.1715,0,0,0,0,0,0,-0.1479,-0.1485,-0.154,-0.1519,-0.1526,-0.1559,-0.157,-0.1576,-0.1586,-0.1618,-0.1624,-0.1602,-0.1649,-0.1654,-0.1671,-0.167,-0.168,-0.1682,-0.1716,-0.1715,-0.1715,-0.1689,0,0,0,0,0,0,-0.1477,-0.1484,-0.1486,-0.1518,-0.1527,-0.1552,-0.157,-0.1577,-0.1589,-0.1592,-0.1623,-0.1629,-0.1649,-0.1668,-0.1673,-0.1673,-0.1683,-0.1716,-0.1716,-0.1715,-0.169,-0.1687,-0.1686,0,0,0,0,0,-0.1474,-0.1475,-0.1485,-0.1491,-0.153,-0.1552,-0.1557,-0.1581,-0.1588,-0.1591,-0.1612,-0.1628,-0.167,-0.1669,-0.1675,-0.1676,-0.1716,-0.1716,-0.1715,-0.1691,-0.1688,-0.1686,0,0,0,0,0,0,-0.144,-0.148,-0.1492,-0.1503,-0.1524,-0.1558,-0.1562,-0.1577,-0.1596,-0.1598,-0.1627,-0.1634,-0.1648,-0.1664,-0.1663,-0.1685,-0.1695,-0.1696,-0.1674,-0.1672,-0.167,-0.1666,-0.1685,0,0,0,0,0,-0.1435,-0.1449,-0.1483,-0.149,-0.15,-0.1529,-0.1539,-0.1556,-0.1579,-0.1588,-0.161,-0.1632,-0.1651,-0.1662,-0.168,-0.1692,-0.1701,-0.1696,-0.1694,-0.1692,-0.1693,-0.1703,-0.1702,-0.1714,-0.1714,-0.1714,0,0,-0.1422,-0.1445,-0.1452,-0.1484,-0.1502,-0.1517,-0.1536,-0.155,-0.1563,-0.159,-0.1608,-0.1625,-0.1652,-0.1667,-0.1674,-0.168,-0.1691,-0.1692,-0.169,-0.1692,-0.1703,-0.1701,-0.17,-0.1714,-0.1714,-0.1714,0,0,-0.1408,-0.1426,-0.1435,-0.1454,-0.1482,-0.1502,-0.1504,-0.1536,-0.1549,-0.1567,-0.1589,-0.1604,-0.1634,-0.1654,-0.1667,-0.1663,-0.1679,-0.1669,-0.1658,-0.1668,-0.1667,-0.1666,-0.1667,-0.1667,-0.1669,-0.1669,-0.1669,0,-0.1389,-0.1412,-0.1438,-0.1452,-0.1467,-0.1493,-0.1504,-0.1521,-0.1553,-0.1562,-0.1569,-0.161,-0.1629,-0.165,-0.165,-0.1659,-0.1664,-0.1665,-0.1665,-0.1665,-0.1664,-0.1665,-0.1665,-0.1668,-0.1668,-0.1668,-0.1668,0,-0.1389,-0.1405,-0.141,-0.1441,-0.1456,-0.1468,-0.1497,-0.1509,-0.1525,-0.1545,-0.1565,-0.1589,-0.1615,-0.1621,-0.1636,-0.1646,-0.1649,-0.1659,-0.167,-0.1661,-0.1663,-0.1663,-0.1666,-0.1666,-0.1667,-0.1667,0,0,-0.1354,-0.1402,-0.1403,-0.1419,-0.1453,-0.1466,-0.1481,-0.1506,-0.1517,-0.1539,-0.1553,-0.158,-0.1591,-0.1607,-0.1625,-0.1633,-0.1632,-0.1644,-0.1645,-0.1642,-0.1646,-0.1639,-0.1639,-0.1643,-0.1643,-0.1643,-0.1645,0,-0.1346,-0.1373,-0.1398,-0.1417,-0.1434,-0.1461,-0.1474,-0.1497,-0.1516,-0.1534,-0.1556,-0.1575,-0.1587,-0.1597,-0.1607,-0.163,-0.1633,-0.163,-0.1657,-0.1658,-0.1651,-0.1639,-0.163,-0.1631,-0.1645,-0.1645,-0.1645,0,-0.134,-0.1362,-0.1383,-0.1418,-0.1426,-0.1437,-0.1464,-0.148,-0.1508,-0.1521,-0.154,-0.156,-0.1578,-0.1587,-0.1614,-0.1611,-0.1624,-0.1638,-0.1639,-0.1642,-0.1651,-0.1644,-0.1631,-0.1632,-0.1646,-0.1646,-0.1646,0,-0.1315,-0.135,-0.1368,-0.138,-0.1421,-0.1429,-0.1446,-0.1474,-0.1488,-0.1512,-0.1523,-0.1548,-0.1562,-0.1582,-0.1608,-0.1612,-0.1634,-0.1644,-0.1647,-0.1646,-0.165,-0.165,-0.1641,-0.1657,-0.1657,-0.1657,-0.1657,0,-0.1304,-0.1316,-0.1357,-0.1368,-0.1383,-0.1413,-0.1427,-0.1447,-0.1472,-0.1488,-0.1513,-0.1528,-0.1561,-0.1581,-0.1602,-0.1623,-0.1628,-0.1641,-0.1647,-0.164,-0.1638,-0.1649,-0.165,-0.1657,-0.1657,-0.1657,-0.1657,0,-0.1279,-0.1306,-0.1328,-0.1365,-0.1375,-0.1385,-0.1417,-0.143,-0.1451,-0.1472,-0.1479,-0.1513,-0.1537,-0.1566,-0.1599,-0.1614,-0.1633,-0.1641,-0.1624,-0.1627,-0.1629,-0.1629,-0.1627,-0.1629,-0.1643,-0.1642,-0.1642,0,-0.1271,-0.1281,-0.132,-0.1333,-0.135,-0.137,-0.1385,-0.1415,-0.1431,-0.1465,-0.1474,-0.15,-0.1523,-0.1561,-0.1589,-0.1616,-0.1625,-0.1623,-0.1629,-0.1623,-0.1627,-0.1627,-0.1629,-0.1621,-0.1621,-0.1621,-0.162,0,-0.1254,-0.1268,-0.1289,-0.1316,-0.1334,-0.1357,-0.1381,-0.139,-0.1425,-0.1441,-0.1467,-0.1485,-0.152,-0.1547,-0.1578,-0.1597,-0.1615,-0.1618,-0.1621,-0.1614,-0.1604,-0.1611,-0.162,-0.1618,-0.1618,-0.1619,-0.1619,-0.1619,-0.1238,-0.125,-0.128,-0.1303,-0.1325,-0.1347,-0.1361,-0.1385,-0.1407,-0.1438,-0.1455,-0.1481,-0.1511,-0.1554,-0.1573,-0.1595,-0.1601,-0.1603,-0.1605,-0.1605,-0.1604,-0.16,-0.16,-0.16,-0.16,-0.16,-0.1601,0,-0.1225,-0.1246,-0.1267,-0.13,-0.132,-0.1335,-0.1363,-0.1378,-0.1401,-0.1427,-0.145,-0.1481,-0.1508,-0.1539,-0.1568,-0.1579,-0.1589,-0.1586,-0.1586,-0.1591,-0.1596,-0.1592,-0.1578,-0.1578,-0.1578,-0.1578,-0.1578,-0.1578,-0.122,-0.1241,-0.1258,-0.1291,-0.1312,-0.1338,-0.1352,-0.1374,-0.1395,-0.1429,-0.1451,-0.1471,-0.1501,-0.1532,-0.1558,-0.1567,-0.1577,-0.1572,-0.1584,-0.1588,-0.159,-0.1592,-0.1588,-0.1574,-0.1574,-0.1577,-0.1577,-0.1577]}]]